SCP
0 0 0 0 0 -0 -0 0 0 0 0 0 0 0 0 0 0 0 0 0 0 0 0 0 0 0 0 0 0 0 0 0 0 0 0 0 0 0
0 0 0 0 0 -0 -0 0 0 0 0 0 0 0 0 0 0 0 0 0 0 0 0 0 0 0 0 0 0 0 0 0 0 0 0 0 0 0
0 0 0 0 0 0 0 0 0 0 0 0 0 0 0 0 0 0 0 0 0 0 0 0 0 0 0 0 0 0 0 0 0 0 0 0 0 0
0 0 0 0 0 0 0 0 0 0 0 0 0 0 0 0 0 0 0 0 0 0 0 0 0 0 0 0 0 0 0 0 0 0 0 0 0 0
0 0 0 0 0 0 0 0 0 0 0 0 0 0 0 0 0 0 0 0 0 0 0 0 0 0 0 0 0 0 0 0 0 0 0 0 0 0
0 0 0 0 0 0 0 0 0 0 0 0 0 0 0 0 0 0 0 0 0 0 0 0 0 0 0 0 0 0 0 0 0 0 0 0 0 0
0 0 0 0 0 0 0 0 0 0 0 0 0 0 0 0 0 0 0 0 0 0 0 0 0 0 0 0 0 0 0 0 0 0 0 0 0 0
0 0 0 0 0 0 0 0 0 0 0 0 0 0 0 0 0 0 0 0 0 0 0 0 0 0 0 0 0 0 0 0 0 0 0 0 0 0
0 0 0 0 0 0 0 0 0 0 0 0 0 0 0 0 0 0 0 0 0 0 0 0 0 0 0 0 0 0 0 0 0 0 0 0 0 0
0 0 0 0 0 0 0 0 0 0 0 0 0 0 0 0 0 0 0 0 0 0 0 0 0 0 0 0 0 0 0 0 0 0 0 0 0 0
0 0 0 0 0 0 0 0 0 0 0 0 0 0 0 0 0 0 0 0 0 0 0 0 0 0 0 0 0 0 0 0 0 0 0 0 0 0
0 0 0 0 0 0 0 0 0 0 0 0 0 0 0 0 0 0 0 0 0 0 0 0 0 0 0 0 0 0 0 0 0 0 0 0 0 0
0 0 0 0 0 0 0 0 0 0 0 0 0 0 0 0 0 0 0 0 0 0 0 0 0 0 0 0 0 0 0 0 0 0 0 0 0 0
0 0 0 0 0 0 0 0 0 0 0 0 0 0 0 0 0 0 0 0 0 0 0 0 0 0 0 0 0 0 0 0 0 0 0 0 0 0
0 0 0 0 0 0 0 0 0 0 0 0 0 0 0 0 0 0 0 0 0 0 0 0 0 0 0 0 0 0 0 0 0 0 0 0 0 0
0 0 0 0 0 0 0 0 0 0 0 0 0 0 0 0 0 0 0 0 0 0 0 0 0 0 0 0 0 0 0 0 0 0 0 0 0 0
0 0 0 0 0 0 0 0 0 0 0 0 0 0 0 0 0 0 0 0 0 0 0 0 0 0 0 0 0 0 0 0 0 0 0 0 0 0
0 0 0 0 0 0 0 0 0 0 0 0 0 0 0 0 0 0 0 0 0 0 0 0 0 0 0 0 0 0 0 0 0 0 0 0 0 0
0 0 0 0 0 0 0 0 0 0 0 0 0 0 0 0 0 0 0 0 0 0 0 0 0 0 0 0 0 0 0 0 0 0 0 0 0 0
0 0 0 0 0 0 0 0 0 0 0 0 0 0 0 0 0 0 0 0 0 0 0 0 0 0 0 0 0 0 0 0 0 0 0 0 0 0
0 0 0 0 0 0 0 0 0 0 0 0 0 0 0 0 0 0 0 0 0 0 0 0 0 0 0 0 0 0 0 0 0 0 0 0 0 0
0 0 0 0 0 0 0 0 0 0 0 0 0 0 0 0 0 0 0 0 0 0 0 0 0 0 0 0 0 0 0 0 0 0 0 0 0 0
0 0 0 0 0 0 0 0 0 0 0 0 0 0 0 0 0 0 0 0 0 0 0 0 0 0 0 0 0 0 0 0 0 0 0 0 0 0
Wind_Speed
3 3 2 2 2 2 2 3 4 2 2 2 1 1 0 0 1 1 1 3 4 5 6 6 6 6 6 7 7 6 7 7 7 7 8 9 8 8
2 3 2 2 2 2 2 1 2 3 2 1 1 1 0 0 1 1 1 3 4 4 5 5 6 6 6 6 7 6 6 6 7 7 8 8 9 9
3 4 3 3 3 2 2 2 1 2 2 1 0 0 0 0 1 1 1 1 2 4 5 5 5 6 6 6 6 6 6 7 7 7 8 9 10 9
5 4 4 3 3 3 3 3 2 2 3 2 1 0 1 1 1 1 1 1 1 4 5 5 6 6 6 6 6 7 7 7 7 7 8 9 10 10
5 5 4 4 4 3 3 3 2 2 2 3 2 1 0 1 1 1 1 1 2 3 4 5 6 6 7 7 7 7 7 7 7 7 8 9 10 11
3 4 4 5 5 4 3 3 3 3 3 3 2 1 1 1 0 0 1 2 2 2 3 4 5 7 7 7 7 7 7 7 7 7 8 9 9 10
3 3 4 4 5 4 3 3 4 3 3 3 2 2 2 2 2 1 1 1 2 1 2 3 3 2 3 5 6 7 8 8 8 8 8 9 9 10
4 3 3 3 5 5 5 4 5 5 4 4 3 3 4 2 1 1 1 1 2 2 1 3 2 2 2 2 5 7 8 8 8 8 9 9 10 10
3 3 3 3 4 3 3 3 2 4 4 4 4 4 3 3 3 2 2 2 3 2 2 3 2 2 2 3 7 8 8 8 8 8 9 9 10 10
3 4 4 4 4 4 3 2 1 1 2 2 3 3 2 2 3 3 2 2 2 2 1 2 2 3 3 3 6 7 7 9 9 8 9 9 10 10
2 2 3 4 6 6 4 4 2 1 1 2 2 2 2 3 2 1 1 1 2 2 1 1 2 3 3 2 3 6 8 9 10 9 9 10 10 9
2 2 3 4 5 6 4 4 4 2 2 1 1 1 1 2 3 2 2 3 2 2 1 1 1 1 3 2 2 3 4 7 9 10 10 10 10 5
2 2 2 5 4 4 4 3 4 3 2 2 1 1 0 0 0 1 1 2 3 3 2 0 1 1 2 3 3 2 2 3 4 5 8 10 11 7
2 2 2 4 4 3 3 3 4 3 2 2 2 1 1 1 1 1 1 1 2 3 3 2 2 2 2 2 3 3 2 3 3 3 3 8 9 11
2 3 3 2 2 2 2 3 2 1 1 2 2 2 1 1 1 0 0 1 1 2 2 2 2 2 2 3 3 3 3 3 3 3 3 4 4 4
1 2 2 2 1 1 1 1 1 1 1 2 2 1 1 1 1 1 1 1 1 2 2 2 2 3 3 4 4 4 3 3 3 4 4 4 4 3
2 1 1 1 1 1 1 1 1 1 1 1 1 1 1 1 1 1 1 1 2 2 2 2 2 3 4 4 4 5 4 4 4 4 4 5 4 4
2 2 2 2 2 2 1 1 1 1 1 1 1 1 1 1 1 1 1 2 2 3 3 2 2 2 2 3 5 5 4 4 4 4 3 4 5 4
1 2 2 2 2 2 1 1 1 1 1 1 1 1 1 1 2 2 2 2 2 3 3 2 2 2 2 4 4 4 3 4 4 4 4 4 5 6
1 1 1 1 1 1 1 1 1 1 1 1 1 2 2 2 2 3 2 3 3 3 3 3 3 3 4 4 3 4 6 5 4 4 4 4 5 8
0 1 1 1 1 1 1 1 1 1 2 2 2 2 2 2 2 3 3 5 4 3 4 4 4 5 2 1 3 4 4 6 6 4 4 4 5 4
0 1 0 0 1 1 1 1 2 2 2 2 2 2 2 2 3 3 3 3 3 4 4 4 3 2 2 4 5 5 5 5 6 9 9 7 4 4
0 0 0 0 1 1 1 1 2 2 2 2 2 2 2 3 3 3 3 3 3 4 4 4 3 3 4 4 5 5 6 5 4 4 5 8 11 13
Wind_Direction
157 155 153 157 142 143 144 154 150 165 233 223 232 278 358 31 319 18 18 338 340 343 344 344 344 346 343 344 340 340 341 343 342 339 340 338 328 329
154 156 157 155 149 147 155 165 151 154 186 222 224 224 292 335 296 5 336 325 326 329 332 336 336 336 333 336 338 331 332 334 334 333 334 333 330 325
167 167 169 159 159 161 157 157 150 139 167 258 278 158 83 273 314 324 299 312 311 314 319 325 325 327 328 329 334 330 327 329 329 328 327 327 328 322
179 173 176 169 169 169 166 170 168 160 157 186 230 233 236 220 269 287 306 304 301 305 309 313 316 318 321 328 327 325 321 323 324 322 321 322 322 320
179 179 179 171 177 177 173 173 169 156 146 162 197 218 236 245 278 294 309 313 307 305 311 312 311 312 315 322 324 322 318 317 318 319 321 320 320 320
176 177 180 182 183 180 182 178 162 152 146 156 175 194 216 253 218 238 319 326 315 310 310 306 311 317 313 316 320 319 314 314 315 316 319 321 321 320
174 180 184 183 183 185 186 173 162 161 160 167 185 191 206 205 214 224 262 314 311 294 312 307 313 310 305 307 314 315 311 310 310 312 314 315 317 319
176 173 174 179 187 198 207 197 182 175 178 183 195 201 209 207 209 221 232 290 292 299 318 299 297 295 293 292 306 313 314 310 308 310 311 310 312 314
168 168 178 181 182 172 191 209 211 214 208 189 191 206 203 200 193 211 226 241 257 272 302 283 288 293 293 298 307 312 315 311 305 308 311 311 311 312
168 170 170 169 178 172 163 162 172 229 227 207 190 202 205 191 187 200 218 259 277 273 265 270 286 288 296 293 303 314 323 322 313 312 315 315 315 316
156 162 168 168 188 191 167 159 161 196 249 231 223 222 235 239 227 171 199 228 276 275 267 251 275 296 290 277 298 315 323 323 322 320 318 318 319 323
147 158 196 198 203 199 173 166 177 193 186 185 215 255 267 255 256 224 205 208 236 266 263 250 268 325 308 288 293 317 316 316 319 324 324 321 320 320
163 167 189 211 215 205 191 176 195 190 171 174 178 170 149 170 233 224 206 206 212 238 257 289 255 253 251 288 298 298 308 314 315 314 317 320 320 317
167 167 183 202 207 204 202 197 206 200 168 170 172 178 188 212 240 225 208 212 219 240 253 233 232 231 256 276 281 294 301 297 296 299 305 313 316 316
164 178 186 196 205 184 206 220 217 185 174 183 191 201 204 207 202 213 217 246 274 268 259 236 227 234 237 251 271 286 301 296 285 291 300 303 302 306
134 165 190 192 181 171 218 229 201 190 191 196 196 193 173 167 197 215 240 261 273 286 273 257 243 228 245 257 260 273 273 278 293 294 294 293 293 292
153 123 131 134 150 157 160 159 152 166 194 179 172 171 188 202 229 232 236 238 239 259 279 283 265 247 243 246 257 261 267 273 278 290 297 297 292 288
162 150 169 175 182 187 188 188 184 186 182 184 185 186 207 225 234 234 228 229 246 257 262 267 287 305 306 277 237 251 262 268 282 287 285 290 292 292
163 162 178 180 178 177 186 195 202 196 183 193 211 211 211 228 240 244 243 243 251 258 264 256 236 222 259 278 283 243 255 277 286 288 280 275 280 288
143 166 167 167 167 181 192 194 188 180 185 198 214 223 223 225 234 240 244 246 252 256 262 256 231 222 229 249 268 280 265 258 262 274 281 284 280 288
139 150 155 168 182 189 197 198 197 206 209 209 220 226 223 224 236 242 245 257 258 253 257 256 248 259 250 237 269 274 274 269 274 271 274 288 295 296
169 169 170 177 184 191 200 201 207 218 220 222 226 229 229 227 234 239 242 248 250 252 259 265 268 262 224 231 255 271 284 292 292 292 278 264 263 269
206 192 199 216 225 215 211 217 222 226 225 223 227 230 230 237 243 244 243 245 252 259 266 271 267 250 242 239 251 266 273 281 287 291 284 284 284 283